[[{"header":{"parameterUnit":"m.s-1","parameterCategory":1,"la1":30.2992,"la2":30.254,"lo1":-89.0895,"lo2":-89.0443,"dy":0.0025,"dx":0.0025,"nx":19,"ny":19,"refTime":"2026-05-01T03:00:00:Z","depth":0,"parameterNumber":2,"parameterNumberName":"U-component_of_WINDS"},"data":[0,0,0,0.714,0.7134,0.6813,0.6811,0.6405,0.6401,0,0,0,0,0,0,0,0,0,0,0,0.7248,0.7246,0.7141,0.7133,0.6813,0.6811,0.6405,0.6401,0,0,0,0,0,0,0,0,0,0,0,0.7249,0.7247,0.7244,0.7132,0.6813,0.6811,0.6406,0.6644,0,0,0,0,0,0,0,0,0,0,0.6954,0.707,0.7248,0.7244,0.713,0.6813,0.6811,0.6655,0.6629,0.6555,0,0.6502,0,0.6446,0.6375,0.6374,0,0,0,0.712,0.7092,0.6995,0.7244,0.7128,0.6814,0.6954,0.6641,0.6611,0.6521,0.6496,0.6481,0.644,0.6373,0.6371,0.6008,0.6007,0,0,0.7138,0.7195,0.7015,0.6976,0.7038,0.6964,0.6944,0.6623,0.6596,0.6495,0.6471,0.6433,0.637,0.6367,0.6009,0.6007,0,0,0,0.7198,0.7208,0.7118,0.6993,0.6936,0.6955,0.6932,0.661,0.6577,0.6466,0.6428,0.6368,0.6363,0.601,0.6008,0.6011,0,0,0,0.7208,0.7243,0.7127,0.7158,0.6943,0.6771,0.6927,0.6599,0.6561,0.643,0.6368,0.6359,0.6011,0.6009,0.6013,0.6,0,0,0,0.7264,0.7249,0.7209,0.7162,0.7027,0.6775,0.6723,0.6589,0.6538,0.6374,0.6358,0.6012,0.6009,0.6015,0.6003,0.5919,0,0,0,0.7339,0.7212,0.721,0.7052,0.7031,0.6784,0.6724,0.6535,0.6395,0.6366,0.6011,0.6008,0.6016,0.6005,0.5922,0.5856,0.5836,0,0,0.721,0.7199,0.7101,0.709,0.6859,0.6828,0.6592,0.6405,0.6332,0.6117,0.6107,0.6012,0.6003,0.5919,0.5709,0.5694,0,0,0,0.7079,0.7009,0.6936,0.681,0.6671,0.6545,0.6391,0.6321,0.6137,0.6238,0.5959,0.5952,0.59,0.5865,0.5852,0.58,0.5996,0.5997,0.5997,0.6974,0.6896,0.6727,0.6609,0.6486,0.6329,0.6218,0.6095,0.6046,0.5982,0.5916,0.5799,0.5762,0.5751,0.5699,0.5878,0.5878,0.5878,0.5878,0.6774,0.6661,0.6605,0.6421,0.6335,0.6175,0.6015,0.5986,0.5819,0.5843,0.5792,0.5822,0.5737,0.5686,0.5878,0.5878,0.5878,0.5878,0.5878,0.6693,0.6625,0.6548,0.6357,0.6216,0.6097,0.5941,0.5866,0.5793,0.5745,0.5663,0.5663,0.5649,0.5713,0.5712,0.5712,0.5711,0.5711,0.5711,0.6638,0.6552,0.6434,0.6277,0.6185,0.6053,0.5892,0.5795,0.5668,0.5624,0.5623,0.5577,0.5747,0.5789,0.5704,0.5705,0.5706,0.5707,0.5707,0.6457,0.6487,0.6307,0.6215,0.602,0.5882,0.5791,0.56,0.5509,0.5432,0.5397,0.5538,0.5517,0.5527,0.556,0.542,0.542,0.542,0.542,0.6386,0.6372,0.6169,0.6027,0.5878,0.5778,0.5564,0.5436,0.5305,0.5241,0.5251,0.5291,0.5305,0.5275,0.529,0.532,0.5122,0.5121,0.5121,0.6268,0.6236,0.6074,0.5957,0.5799,0.5661,0.5456,0.5285,0.5143,0.5107,0.5188,0.52,0.5263,0.5289,0.5252,0.5278,0.5331,0,0]},{"header":{"parameterUnit":"m.s-1","parameterCategory":1,"la1":30.2992,"la2":30.254,"lo1":-89.0895,"lo2":-89.0443,"dy":0.0025,"dx":0.0025,"nx":19,"ny":19,"refTime":"2026-05-01T03:00:00:Z","depth":0,"parameterNumber":3,"parameterNumberName":"V-component_of_WINDS"},"data":[0,0,0,-6.8518,-6.852,-6.8574,-6.8575,-6.8664,-6.8665,0,0,0,0,0,0,0,0,0,0,0,-6.8515,-6.8516,-6.8518,-6.852,-6.8574,-6.8575,-6.8664,-6.8665,0,0,0,0,0,0,0,0,0,0,0,-6.8514,-6.8516,-6.8517,-6.852,-6.8574,-6.8575,-6.8664,-6.8615,0,0,0,0,0,0,0,0,0,0,-6.8558,-6.8569,-6.8515,-6.8517,-6.852,-6.8574,-6.8575,-6.8613,-6.8618,-6.8648,0,-6.8679,0,-6.8674,-6.8673,-6.8673,0,0,0,-6.851,-6.8564,-6.8567,-6.8517,-6.8521,-6.8574,-6.8547,-6.8615,-6.8622,-6.8656,-6.868,-6.8683,-6.8675,-6.8673,-6.8674,-6.8881,-6.8882,0,0,-6.8507,-6.8531,-6.8563,-6.8572,-6.8566,-6.8545,-6.8549,-6.8619,-6.8647,-6.868,-6.8685,-6.8677,-6.8674,-6.8675,-6.888,-6.8881,0,0,0,-6.8505,-6.853,-6.8531,-6.8569,-6.8577,-6.8547,-6.8551,-6.8644,-6.8642,-6.8685,-6.8678,-6.8675,-6.8676,-6.8878,-6.888,-6.8975,0,0,0,-6.8502,-6.8529,-6.853,-6.8546,-6.8576,-6.8611,-6.8575,-6.8637,-6.8644,-6.8677,-6.8675,-6.8677,-6.8876,-6.8879,-6.8969,-6.9015,0,0,0,-6.8507,-6.8529,-6.8541,-6.8547,-6.8571,-6.861,-6.8612,-6.8638,-6.864,-6.8673,-6.8677,-6.8875,-6.8879,-6.8963,-6.9006,-6.9076,0,0,0,-6.8518,-6.8625,-6.8543,-6.8659,-6.8571,-6.8668,-6.8611,-6.8682,-6.8722,-6.8675,-6.8877,-6.888,-6.8962,-6.9001,-6.907,-6.9139,-6.917,0,0,-6.8667,-6.8644,-6.871,-6.8638,-6.8757,-6.8658,-6.8789,-6.8802,-6.8782,-6.8849,-6.8854,-6.8971,-6.9005,-6.9075,-6.9337,-6.9362,0,0,0,-6.8765,-6.8813,-6.8839,-6.8878,-6.8891,-6.8904,-6.8894,-6.8899,-6.8954,-6.8822,-6.9014,-6.9034,-6.9074,-6.9105,-6.9127,-6.9158,-6.8896,-6.8896,-6.8895,-6.901,-6.8979,-6.9086,-6.9062,-6.9101,-6.9089,-6.9117,-6.912,-6.9078,-6.9124,-6.9143,-6.9306,-6.9344,-6.936,-6.9394,-6.9178,-6.9178,-6.9179,-6.9179,-6.9224,-6.9286,-6.9227,-6.931,-6.9276,-6.9345,-6.9337,-6.9305,-6.9363,-6.929,-6.9323,-6.9244,-6.9388,-6.9416,-6.9186,-6.9184,-6.9184,-6.9183,-6.9182,-6.938,-6.9405,-6.9409,-6.9461,-6.9505,-6.9476,-6.9535,-6.9502,-6.9471,-6.9505,-6.952,-6.9519,-6.9512,-6.9515,-6.9515,-6.9516,-6.9516,-6.9517,-6.9517,-6.9541,-6.9542,-6.9596,-6.9618,-6.9637,-6.966,-6.9649,-6.9667,-6.9679,-6.9651,-6.9651,-6.9603,-6.9409,-6.936,-6.9526,-6.9524,-6.9523,-6.9522,-6.9522,-6.9768,-6.9711,-6.9794,-6.9814,-6.9836,-6.9881,-6.9838,-6.9879,-6.9889,-6.9919,-6.9864,-6.9727,-6.97,-6.9683,-6.9643,-6.9872,-6.9872,-6.9872,-6.9872,-6.9899,-6.9883,-6.9959,-6.9994,-7.0023,-6.9993,-7.0086,-7.0078,-7.0061,-7.0065,-7.0027,-6.9971,-6.9955,-6.9938,-6.9916,-6.9877,-7.0161,-7.0161,-7.0161,-7.0036,-7.0021,-7.0107,-7.009,-7.0104,-7.0117,-7.0203,-7.0244,-7.0212,-7.0172,-7.0067,-7.0055,-6.9964,-6.9936,-6.9893,-6.9858,-6.9787,0,0]}]]